Location: Caracas
(10.5033°N, 66.8422°W)
Time: 04:36:44
(UTC-04:00)

OTV 5 (USA 277) - Visible Passes

Search period start: 18 November 2017 00:00
Search period end: 28 November 2017 00:00
Orbit: 404 x 417 km, 43.0° (Epoch: 07 September)

Date Brightness Start Highest point End Pass type
(mag) Time Alt. Az. Time Alt. Az. Time Alt. Az.
23 Nov ? 19:59:34 10° SW 20:00:11 15° SW 20:00:11 15° SW visible
24 Nov ? 05:53:14 10° NNW 05:56:08 29° NE 05:59:01 10° ESE visible
24 Nov ? 19:08:55 10° SSW 19:11:52 28° SE 19:12:00 28° SE visible
25 Nov ? 05:03:58 14° NNE 05:05:02 15° NE 05:07:05 10° E visible
25 Nov ? 18:18:53 10° S 18:20:51 15° SE 18:22:49 10° E visible
25 Nov ? 19:55:06 10° WSW 19:56:37 20° W 19:56:37 20° W visible
26 Nov ? 05:48:33 14° WNW 05:51:15 54° SW 05:54:27 10° SSE visible
26 Nov ? 19:03:38 10° WSW 19:06:56 56° NW 19:08:26 28° NNE visible
27 Nov ? 05:00:23 63° ENE 05:00:23 63° ENE 05:03:29 10° SE visible
